User: anonymous   Login
Location: Unspecified
(0.0000°N, 0.0000°E)
Time: 20:10:28
(UTC+00:00)
Language:

ISAT - Orbit

View from above orbital plane
View from above orbital plane
View from above satellite
View from above satellite

Ground track
Ground track

The orbit data is extracted from the following two-line orbital elements,

1 43879U 18111D   19289.45111773 -.00000127  00000-0 -60955-5 0  9993
2 43879  97.7092 195.6701 0013184 350.6754   9.4220 14.96057257 41843
Epoch (UTC): 16 October 2019 10:49:36
Eccentricity: 0.0013184
inclination: 97.7092°
perigee height: 570 km
apogee height: 588 km
right ascension of ascending node: 195.6701°
argument of perigee: 350.6754°
revolutions per day: 14.96057257
mean anomaly at epoch: 9.4220°
orbit number at epoch: 4184

The dashed part of the orbit path shows where the satellite is in the earth's shadow,  

DLR